This is the latest recevied weather packets stored in our database for station/object F8KHU-13. If no packets are shown the sender has not sent any weather packets the latest 10 day(s).
| Time | Temp. | Humidity | Pressure | Rain* | Wind** | Luminosity | Snow |
|---|---|---|---|---|---|---|---|
| 1777559138 | 32.22° C | 21% | 1024.7 hPa | 0 mm | - | 0 W/m² | - |
| 1777559118 | 32.22° C | 21% | 1024.7 hPa | 0 mm | - | 0 W/m² | - |
| 1777559098 | 32.22° C | 21% | 1024.6 hPa | 0 mm | - | 0 W/m² | - |
| 1777558238 | 31.11° C | 22% | 1024.7 hPa | 0 mm | - | 0 W/m² | - |
| 1777558218 | 31.11° C | 22% | 1024.7 hPa | 0 mm | - | 0 W/m² | - |
| 1777558198 | 31.11° C | 21% | 1024.7 hPa | 0 mm | - | 0 W/m² | - |
| 1777557338 | 30.56° C | 21% | 1024.9 hPa | 0 mm | - | 0 W/m² | - |
| 1777557319 | 30.56° C | 21% | 1024.8 hPa | 0 mm | - | 0 W/m² | - |
| 1777557298 | 30.56° C | 21% | 1024.8 hPa | 0 mm | - | 0 W/m² | - |
| 1777556439 | 29.44° C | 21% | 1025 hPa | 0 mm | - | 0 W/m² | - |
| 1777556418 | 29.44° C | 21% | 1025 hPa | 0 mm | - | 0 W/m² | - |
| 1777556399 | 29.44° C | 21% | 1025 hPa | 0 mm | - | 0 W/m² | - |
| 1777555538 | 31.67° C | 19% | 1025.1 hPa | 0 mm | - | 0 W/m² | - |
| 1777555518 | 31.67° C | 19% | 1025.1 hPa | 0 mm | - | 0 W/m² | - |
| 1777555498 | 31.67° C | 19% | 1025.2 hPa | 0 mm | - | 0 W/m² | - |
| 1777554639 | 29.44° C | 20% | 1025.1 hPa | 0 mm | - | 0 W/m² | - |
| 1777554619 | 29.44° C | 19% | 1025.2 hPa | 0 mm | - | 0 W/m² | - |
| 1777554599 | 29.44° C | 19% | 1025 hPa | 0 mm | - | 0 W/m² | - |
| 1777553714 | 30° C | 19% | 1025.2 hPa | 0 mm | - | 0 W/m² | - |
| 1777553694 | 30° C | 19% | 1025.2 hPa | 0 mm | - | 0 W/m² | - |
| 1777552839 | 30.56° C | 19% | 1025.3 hPa | 0 mm | - | 0 W/m² | - |
| 1777552819 | 30.56° C | 19% | 1025.3 hPa | 0 mm | - | 0 W/m² | - |
| 1777552799 | 30.56° C | 19% | 1025.3 hPa | 0 mm | - | 0 W/m² | - |
| 1777551934 | 31.67° C | 21% | 1025.5 hPa | 0 mm | - | 0 W/m² | - |
| 1777551914 | 31.67° C | 21% | 1025.4 hPa | 0 mm | - | 0 W/m² | - |
* Rain latest hour (hover to see other rain measurements)
** Current wind speed in m/s (hover to see current wind gust speed)